Погода в Арылахе

Россия / Республика Саха (Якутия)     62°21′58″N   132°36′30″E
темп.,
°C
ветер,
м/с
пор.,
м/с
влажн.,
%
обл.,
%
осадки,
мм/ч
давл.,
гПа
погр.,
м
27 февраля, сб
сб2700:00−33в229913 0.0 103419
03:00−34в23996 0.0 103328
06:00−35в23990 0.0 103224
09:00−32в259810 0.0 1030133
12:00−26в249457 0.0 1029294
15:00−24в369367 0.0 1025347
18:00−28в239688 0.0 102452
21:00−29всв259694 0.0 1021101
28 февраля, вс
вс2800:00−29всв3792100 0.0 1018156
03:00−29св2592100 0.0 101599
06:00−29с2390100 0.0 101540
09:00−28ссв3589100 0.0 1016172
12:00−23ююз1185100 0.0 1018412
15:00−22зюз2289100 0.0 1019549
18:00−25з2597100 0.1 1022192
21:00−25з2698100 0.1 1023288
1 марта, пн
пн100:00−27з2597100 0.1 1024231
03:00−29зюз2498100 0.1 1024122
06:00−29юз2498100 0.0 1025115
09:00−28зюз2595100 0.1 1025353
12:00−26зюз2387100 0.0 1025786
15:00−26зюз2385100 0.1 1025931
18:00−28зюз1296100 0.1 102620
21:00−30зюз229897 0.1 102620
2 марта, вт
вт200:00−31зюз229994 0.0 102619
03:00−33зюз229997 0.0 102619
06:00−35з229993 0.0 102719
09:00−33зюз129781 0.0 102685
12:00−28з238892 0.0 1026455
15:00−27з229096 0.1 1026659
18:00−29з1299100 0.1 102621
21:00−30зсз1198100 0.2 102619
3 марта, ср
ср300:00−30зсз1198100 0.1 102619
03:00−30зсз1198100 0.1 102519
06:00−31сз0198100 0.1 102419
09:00−29зсз0196100 0.1 1024113
12:00−26зсз1187100 0.0 1022552
15:00−26сз1283100 0.1 1020787
18:00−30зсз2296100 0.0 101919
21:00−33зсз239998 0.1 101820